Location: Alando
(42.3054°N, 9.2895°E)
Time: 18:41:24
(UTC+00:00)

Cosmos 2344 - Pass Details

Date: 09 April 2020
Orbit: 1251 x 2991 km, 63.3° (Epoch: 02 June)

Event Time Altitude Azimuth Distance (km) Brightness Sun altitude
Rises 22:25:25 0° 323° (NW) 4,732 7.4 -37.9°
Reaches altitude 10° 22:28:05 10° 322° (NW) 3,900 6.8 -38.1°
Maximum altitude 22:38:07 80° 238° (WSW) 2,084 4.4 -38.6°
Enters shadow 22:38:45 78° 203° (SSW) 2,121 4.4 -38.6°
